| time (UTC) | temp F | wind direction | speed MPH | gust MPH | rain 1hr in | rain 24hr in | rain mn in | humidity % | barometer mb |
| 20260902012022 | 81 | 194 | 6.0 | 21.0 | 0.00 | 0.00 | 0.00 | 79 | 999.3 |
| 20260902011950 | 81 | 113 | 5.0 | 21.0 | 0.00 | 0.00 | 0.00 | 79 | 999.4 |
| 20260902011451 | 81 | 192 | 2.0 | 18.0 | 0.00 | 0.00 | 0.00 | 79 | 999.4 |
| 20260902011002 | 81 | 144 | 3.0 | 17.0 | 0.00 | 0.00 | 0.00 | 78 | 999.4 |
| 20260902010950 | 81 | 114 | 3.0 | 17.0 | 0.00 | 0.00 | 0.00 | 78 | 999.3 |
| 20260902010454 | 81 | 169 | 4.0 | 15.0 | 0.00 | 0.00 | 0.00 | 79 | 999.3 |
| 20260902010452 | 81 | 171 | 4.0 | 15.0 | 0.00 | 0.00 | 0.00 | 79 | 999.3 |
| 20260902005950 | 81 | 24 | 1.0 | 10.0 | 0.00 | 0.00 | 0.00 | 79 | 999.2 |
| 20260902005942 | 81 | 348 | 2.0 | 10.0 | 0.00 | 0.00 | 0.00 | 79 | 999.3 |
| 20260902005450 | 81 | 158 | 8.0 | 11.0 | 0.00 | 0.00 | 0.00 | 80 | 999.3 |
| 20260902005432 | 81 | 149 | 8.0 | 11.0 | 0.00 | 0.00 | 0.00 | 80 | 999.3 |
| 20260902004951 | 80 | 106 | 6.0 | 17.0 | 0.00 | 0.00 | 0.00 | 81 | 999.3 |
| 20260902004922 | 80 | 165 | 8.0 | 17.0 | 0.00 | 0.00 | 0.00 | 81 | 999.3 |
| 20260902004450 | 80 | 85 | 3.0 | 10.0 | 0.00 | 0.00 | 0.00 | 82 | 999.3 |
| 20260902004412 | 80 | 342 | 3.0 | 11.0 | 0.00 | 0.00 | 0.00 | 82 | 999.3 |
| 20260902003951 | 80 | 98 | 7.0 | 18.0 | 0.00 | 0.00 | 0.00 | 82 | 999.3 |
| 20260902003902 | 80 | 201 | 9.0 | 18.0 | 0.00 | 0.00 | 0.00 | 82 | 999.3 |
| 20260902003450 | 80 | 196 | 6.0 | 16.0 | 0.00 | 0.00 | 0.00 | 82 | 999.4 |
| 20260902003351 | 80 | 176 | 6.0 | 16.0 | 0.00 | 0.00 | 0.00 | 82 | 999.4 |
| 20260902002950 | 79 | 210 | 5.0 | 19.0 | 0.00 | 0.00 | 0.00 | 82 | 999.3 |
| 20260902002842 | 79 | 188 | 9.0 | 19.0 | 0.00 | 0.00 | 0.00 | 82 | 999.3 |
| 20260902002450 | 80 | 188 | 10.0 | 20.0 | 0.00 | 0.00 | 0.00 | 82 | 999.3 |
| 20260902002331 | 80 | 195 | 11.0 | 20.0 | 0.00 | 0.00 | 0.00 | 82 | 999.3 |
| 20260902001950 | 80 | 151 | 10.0 | 21.0 | 0.00 | 0.00 | 0.00 | 81 | 999.3 |
| 20260902001821 | 80 | 124 | 10.0 | 21.0 | 0.00 | 0.00 | 0.00 | 82 | 999.2 |
| 20260902001450 | 80 | 179 | 10.0 | 17.0 | 0.00 | 0.00 | 0.00 | 81 | 999.2 |
| 20260902001312 | 80 | 157 | 5.0 | 12.0 | 0.00 | 0.00 | 0.00 | 81 | 999.2 |
| 20260902000950 | 80 | 204 | 6.0 | 13.0 | 0.00 | 0.00 | 0.00 | 81 | 999.1 |
| 20260902000801 | 80 | 134 | 8.0 | 13.0 | 0.00 | 0.00 | 0.00 | 81 | 999.1 |
| 20260902000451 | 80 | 84 | 1.0 | 11.0 | 0.00 | 0.00 | 0.00 | 81 | 999.1 |
| 20260902000252 | 80 | 210 | 6.0 | 11.0 | 0.00 | 0.00 | 0.00 | 81 | 999.1 |
| 20260901235951 | 80 | 59 | 3.0 | 10.0 | 0.00 | 0.00 | 0.00 | 81 | 999.1 |
| 20260901235741 | 80 | 62 | 2.0 | 14.0 | 0.00 | 0.00 | 0.00 | 81 | 999.0 |
| 20260901235450 | 80 | 225 | 8.0 | 14.0 | 0.00 | 0.00 | 0.00 | 81 | 999.0 |
| 20260901234950 | 80 | 269 | 3.0 | 10.0 | 0.00 | 0.00 | 0.00 | 81 | 998.9 |
| 20260901234721 | 80 | 168 | 4.0 | 10.0 | 0.00 | 0.00 | 0.00 | 81 | 998.8 |
| 20260901234450 | 80 | 116 | 6.0 | 15.0 | 0.00 | 0.00 | 0.00 | 81 | 998.8 |
| 20260901234211 | 80 | 115 | 3.0 | 15.0 | 0.00 | 0.00 | 0.00 | 81 | 998.8 |
| 20260901233950 | 80 | 101 | 3.0 | 9.0 | 0.00 | 0.00 | 0.00 | 82 | 998.7 |
| 20260901233701 | 80 | 240 | 2.0 | 10.0 | 0.00 | 0.00 | 0.00 | 82 | 998.7 |
| 20260901233450 | 80 | 104 | 4.0 | 13.0 | 0.00 | 0.00 | 0.00 | 82 | 998.7 |
| 20260901233152 | 80 | 129 | 3.0 | 14.0 | 0.00 | 0.00 | 0.00 | 81 | 998.6 |
| 20260901232950 | 80 | 214 | 7.0 | 14.0 | 0.00 | 0.00 | 0.00 | 81 | 998.6 |
| 20260901232641 | 80 | 148 | 7.0 | 12.0 | 0.00 | 0.00 | 0.00 | 81 | 998.5 |
| 20260901232450 | 80 | 182 | 4.0 | 9.0 | 0.00 | 0.00 | 0.00 | 82 | 998.5 |
| 20260901232131 | 80 | 111 | 6.0 | 16.0 | 0.00 | 0.00 | 0.00 | 81 | 998.5 |
| 20260901231950 | 80 | 121 | 3.0 | 16.0 | 0.00 | 0.00 | 0.00 | 81 | 998.5 |
| 20260901231621 | 80 | 185 | 6.0 | 14.0 | 0.00 | 0.00 | 0.00 | 81 | 998.5 |
| 20260901231449 | 80 | 96 | 5.0 | 14.0 | 0.00 | 0.00 | 0.00 | 81 | 998.4 |
| 20260901231111 | 80 | 253 | 1.0 | 17.0 | 0.00 | 0.00 | 0.00 | 82 | 998.4 |
| 20260901230950 | 80 | 52 | 2.0 | 17.0 | 0.00 | 0.00 | 0.00 | 81 | 998.4 |
| 20260901230601 | 80 | 171 | 6.0 | 11.0 | 0.00 | 0.00 | 0.00 | 81 | 998.4 |
| 20260901230449 | 80 | 266 | 5.0 | 11.0 | 0.00 | 0.00 | 0.00 | 81 | 998.4 |
| 20260901230051 | 80 | 173 | 5.0 | 16.0 | 0.00 | 0.00 | 0.00 | 81 | 998.4 |
| 20260901225949 | 80 | 216 | 3.0 | 16.0 | 0.00 | 0.00 | 0.00 | 82 | 998.3 |
| 20260901225541 | 79 | 127 | 9.0 | 16.0 | 0.00 | 0.00 | 0.00 | 82 | 998.2 |
| 20260901225450 | 79 | 184 | 9.0 | 16.0 | 0.00 | 0.00 | 0.00 | 82 | 998.2 |
| 20260901225030 | 79 | 165 | 3.0 | 7.0 | 0.00 | 0.00 | 0.00 | 82 | 998.1 |
| 20260901224949 | 79 | 80 | 1.0 | 8.0 | 0.00 | 0.00 | 0.00 | 82 | 998.1 |
| 20260901224521 | 79 | 213 | 9.0 | 13.0 | 0.00 | 0.00 | 0.00 | 82 | 998.0 |
| 20260901224449 | 79 | 209 | 10.0 | 13.0 | 0.00 | 0.00 | 0.00 | 82 | 998.0 |
| 20260901223950 | 79 | 222 | 8.0 | 12.0 | 0.00 | 0.00 | 0.00 | 83 | 998.1 |
| 20260901223500 | 79 | 114 | 1.0 | 16.0 | 0.00 | 0.00 | 0.00 | 83 | 998.1 |
| 20260901223449 | 79 | 104 | 2.0 | 16.0 | 0.00 | 0.00 | 0.00 | 83 | 998.1 |
| 20260901222949 | 79 | 155 | 4.0 | 11.0 | 0.00 | 0.00 | 0.00 | 83 | 998.1 |
| 20260901222450 | 79 | 223 | 8.0 | 14.0 | 0.00 | 0.00 | 0.00 | 83 | 998.0 |
| 20260901222441 | 79 | 239 | 6.0 | 14.0 | 0.00 | 0.00 | 0.00 | 83 | 998.0 |
| 20260901221949 | 79 | 95 | 3.0 | 11.0 | 0.00 | 0.00 | 0.00 | 83 | 998.0 |
| 20260901221930 | 79 | 168 | 3.0 | 11.0 | 0.00 | 0.00 | 0.00 | 83 | 998.0 |
| 20260901221449 | 79 | 155 | 9.0 | 14.0 | 0.00 | 0.00 | 0.00 | 83 | 998.0 |
| 20260901221420 | 79 | 176 | 7.0 | 14.0 | 0.00 | 0.00 | 0.00 | 83 | 997.9 |
| 20260901220949 | 79 | 204 | 2.0 | 9.0 | 0.00 | 0.00 | 0.00 | 83 | 998.0 |
| 20260901220911 | 79 | 360 | 4.0 | 12.0 | 0.00 | 0.00 | 0.00 | 83 | 998.0 |
| 20260901220449 | 79 | 121 | 9.0 | 14.0 | 0.00 | 0.00 | 0.00 | 83 | 997.9 |
| 20260901220400 | 79 | 161 | 6.0 | 14.0 | 0.00 | 0.00 | 0.00 | 83 | 997.9 |
| 20260901215949 | 79 | 156 | 7.0 | 20.0 | 0.00 | 0.00 | 0.00 | 82 | 997.8 |
| 20260901215851 | 79 | 213 | 13.0 | 20.0 | 0.00 | 0.00 | 0.00 | 82 | 997.8 |
| 20260901215450 | 79 | 360 | 3.0 | 18.0 | 0.00 | 0.00 | 0.00 | 82 | 997.8 |
| 20260901215340 | 79 | 274 | 11.0 | 18.0 | 0.00 | 0.00 | 0.00 | 82 | 997.7 |
| 20260901214949 | 79 | 90 | 3.0 | 15.0 | 0.00 | 0.00 | 0.00 | 83 | 997.8 |
| 20260901214830 | 79 | 43 | 3.0 | 15.0 | 0.00 | 0.00 | 0.00 | 83 | 997.7 |
| 20260901214449 | 79 | 123 | 7.0 | 14.0 | 0.00 | 0.00 | 0.00 | 83 | 997.7 |
| 20260901214321 | 79 | 174 | 2.0 | 7.0 | 0.00 | 0.00 | 0.00 | 83 | 997.7 |
| 20260901213948 | 79 | 35 | 3.0 | 7.0 | 0.00 | 0.00 | 0.00 | 83 | 997.6 |
| 20260901213810 | 79 | 122 | 4.0 | 10.0 | 0.00 | 0.00 | 0.00 | 83 | 997.7 |
| 20260901213449 | 79 | 58 | 5.0 | 13.0 | 0.00 | 0.00 | 0.00 | 84 | 997.7 |
| 20260901213300 | 79 | 98 | 7.0 | 13.0 | 0.00 | 0.00 | 0.00 | 84 | 997.7 |
| 20260901212949 | 79 | 134 | 6.0 | 12.0 | 0.00 | 0.00 | 0.00 | 84 | 997.7 |
| 20260901212751 | 79 | 179 | 3.0 | 7.0 | 0.00 | 0.00 | 0.00 | 84 | 997.7 |
| 20260901212449 | 79 | 159 | 3.0 | 21.0 | 0.00 | 0.00 | 0.00 | 85 | 997.8 |
| 20260901212240 | 79 | 357 | 2.0 | 21.0 | 0.00 | 0.00 | 0.00 | 85 | 997.7 |
| 20260901211949 | 79 | 180 | 4.0 | 12.0 | 0.00 | 0.00 | 0.00 | 85 | 997.8 |
| 20260901211730 | 79 | 255 | 2.0 | 18.0 | 0.00 | 0.00 | 0.00 | 85 | 997.8 |
| 20260901211449 | 78 | 166 | 2.0 | 18.0 | 0.00 | 0.00 | 0.00 | 85 | 997.8 |
| 20260901211220 | 78 | 263 | 3.0 | 11.0 | 0.00 | 0.00 | 0.00 | 85 | 997.8 |
| 20260901210948 | 78 | 42 | 2.0 | 15.0 | 0.00 | 0.00 | 0.00 | 85 | 997.8 |
| 20260901210710 | 78 | 209 | 11.0 | 15.0 | 0.00 | 0.00 | 0.00 | 85 | 997.7 |
| 20260901210450 | 79 | 301 | 8.0 | 12.0 | 0.00 | 0.00 | 0.00 | 85 | 997.8 |
| 20260901210200 | 79 | 137 | 3.0 | 11.0 | 0.00 | 0.00 | 0.00 | 85 | 997.8 |
| 20260901205948 | 79 | 182 | 5.0 | 11.0 | 0.00 | 0.00 | 0.00 | 84 | 997.8 |
| 20260901205650 | 79 | 247 | 6.0 | 20.0 | 0.00 | 0.00 | 0.00 | 84 | 997.8 |
| 20260901205448 | 79 | 185 | 6.0 | 20.0 | 0.00 | 0.00 | 0.00 | 84 | 997.7 |
| 20260901205140 | 79 | 113 | 4.0 | 14.0 | 0.00 | 0.00 | 0.00 | 84 | 997.7 |
| 20260901204949 | 79 | 84 | 7.0 | 14.0 | 0.00 | 0.00 | 0.00 | 84 | 997.8 |
| 20260901204449 | 79 | 173 | 2.0 | 13.0 | 0.00 | 0.00 | 0.00 | 83 | 997.8 |
| 20260901204119 | 79 | 154 | 2.0 | 9.0 | 0.00 | 0.00 | 0.00 | 83 | 997.8 |
| 20260901203948 | 79 | 87 | 4.0 | 18.0 | 0.00 | 0.00 | 0.00 | 83 | 997.7 |
| 20260901203610 | 79 | 104 | 8.0 | 18.0 | 0.00 | 0.00 | 0.00 | 83 | 997.7 |
| 20260901203448 | 79 | 129 | 7.0 | 14.0 | 0.00 | 0.00 | 0.00 | 83 | 997.7 |
| 20260901203100 | 79 | 117 | 3.0 | 11.0 | 0.00 | 0.00 | 0.00 | 83 | 997.7 |
| 20260901202949 | 79 | 111 | 5.0 | 9.0 | 0.00 | 0.00 | 0.00 | 83 | 997.7 |
| 20260901202549 | 79 | 43 | 2.0 | 9.0 | 0.00 | 0.00 | 0.00 | 83 | 997.7 |
| 20260901202448 | 79 | 77 | 2.0 | 9.0 | 0.00 | 0.00 | 0.00 | 83 | 997.7 |
| 20260901202040 | 79 | 168 | 3.0 | 6.0 | 0.00 | 0.00 | 0.00 | 83 | 997.8 |
| 20260901201948 | 79 | 131 | 3.0 | 6.0 | 0.00 | 0.00 | 0.00 | 83 | 997.8 |
| 20260901201530 | 79 | 123 | 2.0 | 7.0 | 0.00 | 0.00 | 0.00 | 83 | 997.8 |
| 20260901201448 | 79 | 13 | 3.0 | 7.0 | 0.00 | 0.00 | 0.00 | 84 | 997.8 |
| 20260901201019 | 79 | 348 | 2.0 | 7.0 | 0.00 | 0.00 | 0.00 | 84 | 997.8 |
| 20260901200948 | 79 | 359 | 3.0 | 7.0 | 0.00 | 0.00 | 0.00 | 84 | 997.7 |
| 20260901200509 | 79 | 24 | 4.0 | 8.0 | 0.00 | 0.00 | 0.00 | 84 | 997.7 |
| 20260901200448 | 79 | 108 | 4.0 | 8.0 | 0.00 | 0.00 | 0.00 | 84 | 997.7 |
| 20260901200000 | 79 | 31 | 2.0 | 10.0 | 0.00 | 0.00 | 0.00 | 84 | 997.7 |
| 20260901195948 | 79 | 25 | 2.0 | 10.0 | 0.00 | 0.00 | 0.00 | 84 | 997.6 |
| 20260901195450 | 79 | 206 | 2.0 | 7.0 | 0.00 | 0.00 | 0.00 | 84 | 997.7 |
| 20260901195448 | 79 | 207 | 2.0 | 7.0 | 0.00 | 0.00 | 0.00 | 84 | 997.7 |
| 20260901194948 | 79 | 44 | 4.0 | 10.0 | 0.00 | 0.00 | 0.00 | 84 | 997.7 |
| 20260901194939 | 79 | 59 | 4.0 | 10.0 | 0.00 | 0.00 | 0.00 | 84 | 997.6 |
| 20260901194448 | 79 | 127 | 2.0 | 6.0 | 0.00 | 0.00 | 0.00 | 84 | 997.7 |
| 20260901194430 | 79 | 117 | 1.0 | 5.0 | 0.00 | 0.00 | 0.00 | 84 | 997.7 |
| 20260901193948 | 79 | 47 | 3.0 | 13.0 | 0.00 | 0.00 | 0.00 | 85 | 997.6 |
| 20260901193920 | 79 | 67 | 4.0 | 16.0 | 0.00 | 0.00 | 0.00 | 85 | 997.6 |
| 20260901193448 | 79 | 241 | 10.0 | 16.0 | 0.00 | 0.00 | 0.00 | 85 | 997.6 |
| 20260901193409 | 79 | 136 | 7.0 | 15.0 | 0.00 | 0.00 | 0.00 | 85 | 997.7 |
| 20260901192947 | 79 | 37 | 9.0 | 22.0 | 0.00 | 0.00 | 0.00 | 85 | 997.8 |
| 20260901192900 | 79 | 184 | 7.0 | 17.0 | 0.00 | 0.00 | 0.00 | 85 | 997.7 |
| 20260901192448 | 79 | 195 | 5.0 | 9.0 | 0.00 | 0.00 | 0.00 | 85 | 997.7 |
| 20260901192349 | 79 | 169 | 5.0 | 9.0 | 0.00 | 0.00 | 0.00 | 85 | 997.7 |
| 20260901191948 | 79 | 277 | 4.0 | 10.0 | 0.00 | 0.00 | 0.00 | 85 | 997.7 |
| 20260901191840 | 79 | 37 | 3.0 | 10.0 | 0.00 | 0.00 | 0.00 | 85 | 997.6 |
| 20260901191447 | 79 | 54 | 1.0 | 8.0 | 0.00 | 0.00 | 0.00 | 85 | 997.7 |
| 20260901191329 | 79 | 101 | 4.0 | 8.0 | 0.00 | 0.00 | 0.00 | 85 | 997.7 |
| 20260901190948 | 79 | 137 | 1.0 | 5.0 | 0.00 | 0.00 | 0.00 | 86 | 997.7 |
| 20260901190819 | 79 | 48 | 1.0 | 11.0 | 0.00 | 0.00 | 0.00 | 86 | 997.7 |
| 20260901190448 | 79 | 201 | 7.0 | 15.0 | 0.00 | 0.00 | 0.00 | 86 | 997.8 |
| 20260901190308 | 79 | 209 | 10.0 | 15.0 | 0.00 | 0.00 | 0.00 | 86 | 997.8 |
| 20260901185947 | 79 | 307 | 1.0 | 11.0 | 0.00 | 0.00 | 0.00 | 86 | 997.8 |
| 20260901185759 | 79 | 142 | 7.0 | 13.0 | 0.00 | 0.00 | 0.00 | 86 | 997.7 |
| 20260901185448 | 79 | 224 | 5.0 | 16.0 | 0.00 | 0.00 | 0.00 | 86 | 997.7 |
| 20260901185249 | 79 | 133 | 7.0 | 16.0 | 0.00 | 0.00 | 0.00 | 86 | 997.6 |
| 20260901184948 | 79 | 128 | 9.0 | 16.0 | 0.00 | 0.00 | 0.00 | 86 | 997.7 |
| 20260901184739 | 79 | 233 | 7.0 | 13.0 | 0.00 | 0.00 | 0.00 | 86 | 997.5 |
| 20260901184447 | 79 | 68 | 3.0 | 14.0 | 0.00 | 0.00 | 0.00 | 86 | 997.6 |
| 20260901184229 | 79 | 213 | 7.0 | 16.0 | 0.00 | 0.00 | 0.00 | 86 | 997.6 |
| 20260901183948 | 79 | 145 | 7.0 | 16.0 | 0.00 | 0.00 | 0.00 | 86 | 997.6 |
| 20260901183719 | 79 | 161 | 3.0 | 9.0 | 0.00 | 0.00 | 0.00 | 86 | 997.6 |
| 20260901182947 | 79 | 42 | 4.0 | 19.0 | 0.00 | 0.00 | 0.00 | 86 | 997.6 |
| 20260901182659 | 79 | 237 | 10.0 | 19.0 | 0.00 | 0.00 | 0.00 | 86 | 997.6 |
| 20260901182448 | 79 | 158 | 1.0 | 15.0 | 0.00 | 0.00 | 0.00 | 86 | 997.7 |
| 20260901182149 | 79 | 227 | 8.0 | 15.0 | 0.00 | 0.00 | 0.00 | 86 | 997.7 |
| 20260901181947 | 79 | 303 | 7.0 | 15.0 | 0.00 | 0.00 | 0.00 | 86 | 997.8 |
| 20260901181638 | 80 | 234 | 9.0 | 17.0 | 0.00 | 0.00 | 0.00 | 86 | 997.7 |
| 20260901181447 | 80 | 222 | 5.0 | 17.0 | 0.00 | 0.00 | 0.00 | 86 | 997.7 |
| 20260901181129 | 80 | 268 | 6.0 | 12.0 | 0.00 | 0.00 | 0.00 | 85 | 997.7 |
| 20260901180948 | 80 | 233 | 6.0 | 12.0 | 0.00 | 0.00 | 0.00 | 85 | 997.8 |
| 20260901180618 | 80 | 228 | 6.0 | 15.0 | 0.00 | 0.00 | 0.00 | 85 | 997.7 |
| 20260901180447 | 80 | 199 | 8.0 | 15.0 | 0.00 | 0.00 | 0.00 | 85 | 997.7 |
| 20260901180109 | 80 | 182 | 3.0 | 19.0 | 0.00 | 0.00 | 0.00 | 85 | 997.7 |
| 20260901175947 | 80 | 233 | 9.0 | 19.0 | 0.00 | 0.00 | 0.00 | 85 | 997.8 |
| 20260901175558 | 80 | 228 | 6.0 | 10.0 | 0.00 | 0.00 | 0.00 | 85 | 997.8 |
| 20260901175447 | 80 | 293 | 4.0 | 9.0 | 0.00 | 0.00 | 0.00 | 85 | 997.8 |
| 20260901175048 | 80 | 26 | 1.0 | 6.0 | 0.00 | 0.00 | 0.00 | 85 | 997.9 |
| 20260901174947 | 80 | 96 | 4.0 | 6.0 | 0.00 | 0.00 | 0.00 | 85 | 997.9 |
| 20260901174539 | 80 | 182 | 1.0 | 4.0 | 0.00 | 0.00 | 0.00 | 85 | 997.9 |
| 20260901174448 | 80 | 58 | 2.0 | 4.0 | 0.00 | 0.00 | 0.00 | 85 | 997.9 |
| 20260901173947 | 80 | 66 | 2.0 | 5.0 | 0.00 | 0.00 | 0.00 | 85 | 997.9 |
| 20260901173519 | 80 | 169 | 3.0 | 5.0 | 0.00 | 0.00 | 0.00 | 85 | 998.0 |
| 20260901173447 | 80 | 155 | 1.0 | 9.0 | 0.00 | 0.00 | 0.00 | 85 | 997.9 |
| 20260901172947 | 80 | 134 | 6.0 | 9.0 | 0.00 | 0.00 | 0.00 | 85 | 997.9 |
| 20260901172458 | 80 | 157 | 1.0 | 7.0 | 0.00 | 0.00 | 0.00 | 85 | 998.0 |
| 20260901172447 | 80 | 147 | 1.0 | 7.0 | 0.00 | 0.00 | 0.00 | 85 | 998.0 |
| 20260901171950 | 80 | 56 | 2.0 | 6.0 | 0.00 | 0.00 | 0.00 | 85 | 997.9 |
| 20260901171447 | 80 | 144 | 4.0 | 8.0 | 0.00 | 0.00 | 0.00 | 85 | 998.0 |
| 20260901171438 | 80 | 116 | 4.0 | 8.0 | 0.00 | 0.00 | 0.00 | 85 | 997.9 |
| 20260901170947 | 80 | 91 | 1.0 | 5.0 | 0.00 | 0.00 | 0.00 | 85 | 998.0 |
| 20260901170928 | 80 | 76 | 2.0 | 5.0 | 0.00 | 0.00 | 0.00 | 85 | 998.0 |
| 20260901170446 | 80 | 248 | 4.0 | 9.0 | 0.00 | 0.00 | 0.00 | 86 | 998.1 |
| 20260901170418 | 80 | 278 | 3.0 | 9.0 | 0.00 | 0.00 | 0.00 | 86 | 998.1 |
| 20260901165947 | 80 | 254 | 1.0 | 4.0 | 0.00 | 0.00 | 0.00 | 86 | 998.1 |
| 20260901165908 | 80 | 98 | 1.0 | 5.0 | 0.00 | 0.00 | 0.00 | 86 | 998.1 |
| 20260901165446 | 80 | 29 | 3.0 | 6.0 | 0.00 | 0.00 | 0.00 | 86 | 998.3 |
| 20260901165358 | 80 | 305 | 3.0 | 6.0 | 0.00 | 0.00 | 0.00 | 86 | 998.3 |
| 20260901164947 | 80 | 37 | 1.0 | 5.0 | 0.00 | 0.00 | 0.00 | 86 | 998.3 |
| 20260901164848 | 80 | 50 | 3.0 | 7.0 | 0.00 | 0.00 | 0.00 | 86 | 998.3 |
| 20260901164446 | 80 | 44 | 5.0 | 7.0 | 0.00 | 0.00 | 0.00 | 86 | 998.4 |
| 20260901164337 | 80 | 37 | 4.0 | 7.0 | 0.00 | 0.00 | 0.00 | 86 | 998.4 |
| 20260901163946 | 80 | 40 | 0.0 | 4.0 | 0.00 | 0.00 | 0.00 | 86 | 998.5 |
| 20260901163828 | 80 | 29 | 2.0 | 4.0 | 0.00 | 0.00 | 0.00 | 86 | 998.5 |
| 20260901163447 | 80 | 202 | 1.0 | 8.0 | 0.00 | 0.00 | 0.00 | 86 | 998.5 |
| 20260901163318 | 80 | 162 | 5.0 | 8.0 | 0.00 | 0.00 | 0.00 | 86 | 998.6 |
| 20260901162946 | 80 | 211 | 4.0 | 7.0 | 0.00 | 0.00 | 0.00 | 86 | 998.5 |
| 20260901162808 | 80 | 217 | 4.0 | 7.0 | 0.00 | 0.00 | 0.00 | 86 | 998.6 |
| 20260901162446 | 80 | 198 | 0.0 | 6.0 | 0.00 | 0.00 | 0.00 | 86 | 998.6 |
| 20260901161946 | 80 | 143 | 5.0 | 8.0 | 0.00 | 0.00 | 0.00 | 86 | 998.5 |
| 20260901161747 | 80 | 95 | 1.0 | 4.0 | 0.00 | 0.00 | 0.00 | 86 | 998.5 |
| 20260901161446 | 80 | 325 | 1.0 | 4.0 | 0.00 | 0.00 | 0.00 | 87 | 998.6 |
| 20260901161238 | 80 | 18 | 2.0 | 4.0 | 0.00 | 0.00 | 0.00 | 87 | 998.6 |
| 20260901160946 | 80 | 308 | 1.0 | 5.0 | 0.00 | 0.00 | 0.00 | 87 | 998.6 |
| 20260901160728 | 80 | 260 | 3.0 | 10.0 | 0.00 | 0.00 | 0.00 | 87 | 998.7 |
| 20260901160446 | 80 | 250 | 5.0 | 10.0 | 0.00 | 0.00 | 0.00 | 87 | 998.7 |
| 20260901160218 | 80 | 274 | 2.0 | 5.0 | 0.00 | 0.00 | 0.00 | 87 | 998.6 |
| 20260901155946 | 80 | 220 | 1.0 | 3.0 | 0.00 | 0.00 | 0.00 | 87 | 998.7 |
| 20260901155447 | 80 | 9 | 1.0 | 6.0 | 0.00 | 0.00 | 0.00 | 87 | 998.8 |
| 20260901155157 | 80 | 232 | 4.0 | 6.0 | 0.00 | 0.00 | 0.00 | 87 | 998.8 |
| 20260901154946 | 80 | 226 | 3.0 | 5.0 | 0.00 | 0.00 | 0.00 | 87 | 998.8 |
| 20260901154648 | 80 | 207 | 2.0 | 5.0 | 0.00 | 0.00 | 0.00 | 87 | 998.8 |
| 20260901154446 | 80 | 341 | 1.0 | 4.0 | 0.00 | 0.00 | 0.00 | 87 | 998.8 |
| 20260901154137 | 80 | 174 | 1.0 | 6.0 | 0.00 | 0.00 | 0.00 | 87 | 998.8 |
| 20260901153946 | 80 | 137 | 3.0 | 6.0 | 0.00 | 0.00 | 0.00 | 87 | 998.8 |
| 20260901153627 | 80 | 126 | 3.0 | 6.0 | 0.00 | 0.00 | 0.00 | 87 | 998.7 |
| 20260901153446 | 80 | 237 | 3.0 | 4.0 | 0.00 | 0.00 | 0.00 | 87 | 998.6 |
| 20260901153118 | 80 | 256 | 1.0 | 7.0 | 0.00 | 0.00 | 0.00 | 87 | 998.7 |
| 20260901152946 | 80 | 51 | 1.0 | 7.0 | 0.00 | 0.00 | 0.00 | 87 | 998.7 |
| 20260901152607 | 80 | 201 | 3.0 | 5.0 | 0.00 | 0.00 | 0.00 | 87 | 998.6 |
| 20260901152446 | 80 | 240 | 3.0 | 4.0 | 0.00 | 0.00 | 0.00 | 87 | 998.6 |
| 20260901152057 | 80 | 144 | 0.0 | 5.0 | 0.00 | 0.00 | 0.00 | 87 | 998.6 |
| 20260901151946 | 80 | 117 | 2.0 | 5.0 | 0.00 | 0.00 | 0.00 | 87 | 998.6 |
| 20260901151547 | 80 | 196 | 3.0 | 5.0 | 0.00 | 0.00 | 0.00 | 87 | 998.5 |
| 20260901151445 | 80 | 211 | 3.0 | 8.0 | 0.00 | 0.00 | 0.00 | 87 | 998.5 |
| 20260901151037 | 80 | 243 | 5.0 | 9.0 | 0.00 | 0.00 | 0.00 | 87 | 998.6 |
| 20260901150946 | 80 | 246 | 7.0 | 9.0 | 0.00 | 0.00 | 0.00 | 87 | 998.6 |
| 20260901150528 | 80 | 253 | 1.0 | 4.0 | 0.00 | 0.00 | 0.00 | 87 | 998.6 |
| 20260901150446 | 80 | 266 | 0.0 | 3.0 | 0.00 | 0.00 | 0.00 | 87 | 998.6 |
| 20260901150017 | 80 | 241 | 1.0 | 10.0 | 0.00 | 0.00 | 0.00 | 87 | 998.5 |
| 20260901145945 | 80 | 232 | 1.0 | 10.0 | 0.00 | 0.00 | 0.00 | 87 | 998.6 |
| 20260901145507 | 80 | 27 | 1.0 | 7.0 | 0.00 | 0.00 | 0.00 | 87 | 998.6 |
| 20260901145446 | 80 | 15 | 1.0 | 7.0 | 0.00 | 0.00 | 0.00 | 87 | 998.6 |
| 20260901144956 | 80 | 289 | 1.0 | 9.0 | 0.00 | 0.00 | 0.00 | 87 | 998.5 |
| 20260901144946 | 80 | 302 | 1.0 | 9.0 | 0.00 | 0.00 | 0.00 | 87 | 998.5 |
| 20260901144448 | 80 | 216 | 3.0 | 7.0 | 0.00 | 0.00 | 0.00 | 87 | 998.5 |
| 20260901144445 | 80 | 219 | 3.0 | 7.0 | 0.00 | 0.00 | 0.00 | 87 | 998.5 |
| 20260901143946 | 80 | 354 | 0.0 | 6.0 | 0.00 | 0.00 | 0.00 | 88 | 998.6 |
| 20260901143937 | 80 | 7 | 0.0 | 6.0 | 0.00 | 0.00 | 0.00 | 88 | 998.6 |
| 20260901143445 | 79 | 76 | 2.0 | 7.0 | 0.00 | 0.00 | 0.00 | 88 | 998.6 |
| 20260901142945 | 79 | 267 | 3.0 | 5.0 | 0.00 | 0.00 | 0.00 | 88 | 998.5 |
| 20260901142917 | 79 | 244 | 2.0 | 5.0 | 0.00 | 0.00 | 0.00 | 88 | 998.5 |
| 20260901142446 | 80 | 234 | 3.0 | 7.0 | 0.00 | 0.00 | 0.00 | 88 | 998.5 |
| 20260901142407 | 80 | 262 | 2.0 | 7.0 | 0.00 | 0.00 | 0.00 | 88 | 998.5 |
| 20260901141945 | 79 | 245 | 3.0 | 6.0 | 0.00 | 0.00 | 0.00 | 87 | 998.5 |
| 20260901141857 | 79 | 175 | 0.0 | 3.0 | 0.00 | 0.00 | 0.00 | 88 | 998.5 |
| 20260901141446 | 79 | 249 | 3.0 | 5.0 | 0.00 | 0.00 | 0.00 | 88 | 998.4 |
| 20260901141347 | 79 | 228 | 1.0 | 5.0 | 0.00 | 0.00 | 0.00 | 88 | 998.4 |
| 20260901140945 | 80 | 213 | 2.0 | 9.0 | 0.00 | 0.00 | 0.00 | 87 | 998.4 |
| 20260901140836 | 80 | 227 | 5.0 | 9.0 | 0.00 | 0.00 | 0.00 | 87 | 998.4 |
| 20260901140445 | 80 | 220 | 2.0 | 8.0 | 0.00 | 0.00 | 0.00 | 87 | 998.4 |
| 20260901140327 | 80 | 252 | 4.0 | 8.0 | 0.00 | 0.00 | 0.00 | 87 | 998.4 |
| 20260901135946 | 80 | 264 | 4.0 | 8.0 | 0.00 | 0.00 | 0.00 | 87 | 998.3 |
| 20260901135817 | 79 | 313 | 2.0 | 5.0 | 0.00 | 0.00 | 0.00 | 87 | 998.3 |
| 20260901135445 | 79 | 240 | 1.0 | 9.0 | 0.00 | 0.00 | 0.00 | 87 | 998.3 |
| 20260901135307 | 79 | 359 | 2.0 | 9.0 | 0.00 | 0.00 | 0.00 | 87 | 998.3 |
| 20260901134945 | 79 | 251 | 5.0 | 10.0 | 0.00 | 0.00 | 0.00 | 87 | 998.3 |
| 20260901134757 | 79 | 67 | 1.0 | 10.0 | 0.00 | 0.00 | 0.00 | 88 | 998.3 |
| 20260901134445 | 79 | 296 | 1.0 | 7.0 | 0.00 | 0.00 | 0.00 | 88 | 998.3 |
| 20260901134246 | 79 | 321 | 0.0 | 7.0 | 0.00 | 0.00 | 0.00 | 88 | 998.3 |
| 20260901133945 | 79 | 280 | 1.0 | 4.0 | 0.00 | 0.00 | 0.00 | 88 | 998.3 |
| 20260901133737 | 79 | 233 | 0.0 | 4.0 | 0.00 | 0.00 | 0.00 | 88 | 998.3 |
| 20260901133445 | 79 | 278 | 1.0 | 6.0 | 0.00 | 0.00 | 0.00 | 88 | 998.2 |
| 20260901133226 | 79 | 235 | 3.0 | 6.0 | 0.00 | 0.00 | 0.00 | 88 | 998.2 |
| 20260901132945 | 79 | 250 | 1.0 | 7.0 | 0.00 | 0.00 | 0.00 | 88 | 998.2 |
| 20260901132717 | 79 | 357 | 1.0 | 12.0 | 0.00 | 0.00 | 0.00 | 88 | 998.3 |
| 20260901132445 | 79 | 296 | 6.0 | 12.0 | 0.00 | 0.00 | 0.00 | 88 | 998.2 |
| 20260901132206 | 79 | 144 | 1.0 | 8.0 | 0.00 | 0.00 | 0.00 | 88 | 998.2 |
| 20260901131945 | 79 | 56 | 2.0 | 10.0 | 0.00 | 0.00 | 0.00 | 88 | 998.2 |
| 20260901131656 | 79 | 292 | 1.0 | 10.0 | 0.00 | 0.00 | 0.00 | 87 | 998.3 |
| 20260901131446 | 79 | 16 | 5.0 | 7.0 | 0.00 | 0.00 | 0.00 | 87 | 998.2 |
| 20260901131146 | 79 | 317 | 1.0 | 6.0 | 0.00 | 0.00 | 0.00 | 87 | 998.2 |
| 20260901130945 | 79 | 282 | 3.0 | 6.0 | 0.00 | 0.00 | 0.00 | 87 | 998.2 |
| 20260901130636 | 79 | 258 | 1.0 | 7.0 | 0.00 | 0.00 | 0.00 | 87 | 998.0 |
| 20260901130445 | 79 | 134 | 1.0 | 7.0 | 0.00 | 0.00 | 0.00 | 87 | 998.1 |
| 20260901130126 | 80 | 74 | 4.0 | 8.0 | 0.00 | 0.00 | 0.00 | 87 | 998.1 |
| 20260901125945 | 80 | 119 | 5.0 | 8.0 | 0.00 | 0.00 | 0.00 | 87 | 998.1 |
| 20260901125616 | 80 | 48 | 3.0 | 5.0 | 0.00 | 0.00 | 0.00 | 87 | 998.0 |
| 20260901125444 | 80 | 64 | 3.0 | 5.0 | 0.00 | 0.00 | 0.00 | 87 | 997.9 |
| 20260901125106 | 80 | 146 | 0.0 | 2.0 | 0.00 | 0.00 | 0.00 | 86 | 997.7 |
| 20260901124945 | 80 | 229 | 1.0 | 2.0 | 0.00 | 0.00 | 0.00 | 86 | 997.7 |
| 20260901124557 | 80 | 135 | 0.0 | 2.0 | 0.00 | 0.00 | 0.00 | 86 | 997.6 |
| 20260901124444 | 80 | 49 | 0.0 | 3.0 | 0.00 | 0.00 | 0.00 | 86 | 997.7 |
| 20260901124046 | 80 | 254 | 2.0 | 3.0 | 0.00 | 0.00 | 0.00 | 86 | 997.6 |
| 20260901123945 | 80 | 233 | 2.0 | 4.0 | 0.00 | 0.00 | 0.00 | 86 | 997.6 |
| 20260901123537 | 80 | 122 | 1.0 | 8.0 | 0.00 | 0.00 | 0.00 | 86 | 997.6 |
| 20260901123444 | 80 | 353 | 0.0 | 8.0 | 0.00 | 0.00 | 0.00 | 86 | 997.5 |
| 20260901123026 | 80 | 5 | 0.0 | 7.0 | 0.00 | 0.00 | 0.00 | 86 | 997.5 |
| 20260901122945 | 80 | 311 | 1.0 | 7.0 | 0.00 | 0.00 | 0.00 | 86 | 997.5 |
| 20260901122445 | 80 | 46 | 2.0 | 10.0 | 0.00 | 0.00 | 0.00 | 86 | 997.5 |
| 20260901122006 | 80 | 295 | 3.0 | 5.0 | 0.00 | 0.00 | 0.00 | 87 | 997.5 |
| 20260901121944 | 80 | 53 | 3.0 | 5.0 | 0.00 | 0.00 | 0.00 | 87 | 997.4 |
| 20260901121456 | 80 | 360 | 1.0 | 5.0 | 0.00 | 0.00 | 0.00 | 87 | 997.3 |
| 20260901121444 | 80 | 24 | 0.0 | 5.0 | 0.00 | 0.00 | 0.00 | 88 | 997.3 |
| 20260901120947 | 80 | 213 | 3.0 | 8.0 | 0.00 | 0.00 | 0.00 | 88 | 997.1 |
| 20260901120944 | 80 | 191 | 3.0 | 8.0 | 0.00 | 0.00 | 0.00 | 88 | 997.1 |
| 20260901120445 | 80 | 41 | 4.0 | 9.0 | 0.00 | 0.00 | 0.00 | 88 | 997.0 |
| 20260901120436 | 80 | 92 | 5.0 | 9.0 | 0.00 | 0.00 | 0.00 | 88 | 997.0 |
| 20260901115944 | 80 | 288 | 1.0 | 5.0 | 0.00 | 0.00 | 0.00 | 88 | 997.0 |
| 20260901115926 | 80 | 214 | 0.0 | 5.0 | 0.00 | 0.00 | 0.00 | 88 | 997.0 |
| 20260901115445 | 80 | 271 | 1.0 | 3.0 | 0.00 | 0.00 | 0.00 | 88 | 997.1 |
| 20260901115416 | 80 | 281 | 0.0 | 3.0 | 0.00 | 0.00 | 0.00 | 88 | 997.1 |
| 20260901114944 | 80 | 202 | 1.0 | 3.0 | 0.00 | 0.00 | 0.00 | 88 | 997.0 |
| 20260901114906 | 80 | 184 | 1.0 | 3.0 | 0.00 | 0.00 | 0.00 | 88 | 997.0 |
| 20260901114444 | 80 | 222 | 0.0 | 4.0 | 0.00 | 0.00 | 0.00 | 88 | 996.9 |
| 20260901114356 | 80 | 313 | 0.0 | 4.0 | 0.00 | 0.00 | 0.00 | 88 | 996.9 |
| 20260901113944 | 80 | 359 | 1.0 | 3.0 | 0.00 | 0.00 | 0.00 | 89 | 996.9 |
| 20260901113845 | 80 | 270 | 1.0 | 3.0 | 0.00 | 0.00 | 0.00 | 88 | 996.8 |
| 20260901113444 | 80 | 259 | 0.0 | 2.0 | 0.00 | 0.00 | 0.00 | 88 | 996.8 |
| 20260901113336 | 80 | 230 | 1.0 | 2.0 | 0.00 | 0.00 | 0.00 | 88 | 996.8 |
| 20260901112944 | 80 | 10 | 0.0 | 2.0 | 0.00 | 0.00 | 0.00 | 88 | 996.8 |
| 20260901112444 | 80 | 295 | 2.0 | 3.0 | 0.00 | 0.00 | 0.00 | 88 | 996.7 |
| 20260901112316 | 80 | 267 | 0.0 | 1.0 | 0.00 | 0.00 | 0.00 | 88 | 996.7 |
| 20260901111945 | 80 | 48 | 0.0 | 1.0 | 0.00 | 0.00 | 0.00 | 88 | 996.8 |
| 20260901111805 | 80 | 124 | 0.0 | 1.0 | 0.00 | 0.00 | 0.00 | 88 | 996.8 |
| 20260901111444 | 80 | 198 | 0.0 | 3.0 | 0.00 | 0.00 | 0.00 | 87 | 996.8 |
| 20260901111256 | 80 | 211 | 1.0 | 3.0 | 0.00 | 0.00 | 0.00 | 87 | 996.8 |
| 20260901110944 | 80 | 199 | 1.0 | 5.0 | 0.00 | 0.00 | 0.00 | 87 | 996.8 |
| 20260901110745 | 80 | 206 | 3.0 | 5.0 | 0.00 | 0.00 | 0.00 | 87 | 996.8 |
| 20260901110444 | 80 | 242 | 4.0 | 7.0 | 0.00 | 0.00 | 0.00 | 87 | 996.8 |
| 20260901110235 | 80 | 204 | 5.0 | 7.0 | 0.00 | 0.00 | 0.00 | 87 | 996.8 |
| 20260901105944 | 80 | 233 | 3.0 | 4.0 | 0.00 | 0.00 | 0.00 | 87 | 996.8 |
| 20260901105726 | 80 | 251 | 0.0 | 4.0 | 0.00 | 0.00 | 0.00 | 86 | 996.8 |
| 20260901105443 | 81 | 116 | 1.0 | 4.0 | 0.00 | 0.00 | 0.00 | 86 | 996.7 |
| 20260901104944 | 81 | 283 | 2.0 | 6.0 | 0.00 | 0.00 | 0.00 | 85 | 996.7 |
| 20260901104444 | 81 | 286 | 3.0 | 8.0 | 0.00 | 0.00 | 0.00 | 85 | 996.8 |
| 20260901103944 | 82 | 135 | 1.0 | 7.0 | 0.00 | 0.00 | 0.00 | 84 | 996.8 |
| 20260901103444 | 83 | 39 | 3.0 | 6.0 | 0.00 | 0.00 | 0.00 | 83 | 996.9 |
| 20260901102943 | 82 | 339 | 1.0 | 2.0 | 0.00 | 0.00 | 0.00 | 82 | 996.5 |
| 20260901102625 | 82 | 204 | 1.0 | 4.0 | 0.00 | 0.00 | 0.00 | 82 | 996.4 |
| 20260901102445 | 82 | 194 | 2.0 | 4.0 | 0.00 | 0.00 | 0.00 | 82 | 996.5 |
| 20260901101944 | 82 | 204 | 2.0 | 4.0 | 0.00 | 0.00 | 0.00 | 82 | 996.5 |
| 20260901101605 | 82 | 230 | 0.0 | 2.0 | 0.00 | 0.00 | 0.00 | 82 | 996.5 |
| 20260901101443 | 82 | 228 | 0.0 | 2.0 | 0.00 | 0.00 | 0.00 | 82 | 996.5 |
| 20260901101055 | 83 | 219 | 1.0 | 4.0 | 0.00 | 0.00 | 0.00 | 82 | 996.5 |
| 20260901100944 | 82 | 187 | 2.0 | 5.0 | 0.00 | 0.00 | 0.00 | 82 | 996.5 |
| 20260901100545 | 82 | 168 | 3.0 | 5.0 | 0.00 | 0.00 | 0.00 | 82 | 996.4 |
| 20260901100444 | 82 | 184 | 2.0 | 5.0 | 0.00 | 0.00 | 0.00 | 82 | 996.4 |
| 20260901100034 | 82 | 184 | 2.0 | 5.0 | 0.00 | 0.00 | 0.00 | 82 | 996.4 |
| 20260901095943 | 82 | 203 | 2.0 | 5.0 | 0.00 | 0.00 | 0.00 | 82 | 996.4 |
| 20260901095444 | 83 | 178 | 2.0 | 4.0 | 0.00 | 0.00 | 0.00 | 83 | 996.3 |
| 20260901094943 | 83 | 80 | 1.0 | 3.0 | 0.00 | 0.00 | 0.00 | 83 | 996.4 |
| 20260901094443 | 83 | 215 | 0.0 | 1.0 | 0.00 | 0.00 | 0.00 | 83 | 996.4 |
| 20260901093954 | 82 | 360 | 0.0 | 6.0 | 0.00 | 0.00 | 0.00 | 83 | 996.4 |
| 20260901093944 | 82 | 35 | 0.0 | 6.0 | 0.00 | 0.00 | 0.00 | 82 | 996.4 |
| 20260901093443 | 83 | 334 | 0.0 | 2.0 | 0.00 | 0.00 | 0.00 | 82 | 996.3 |
| 20260901092944 | 83 | 281 | 1.0 | 5.0 | 0.00 | 0.00 | 0.00 | 82 | 996.2 |
| 20260901092443 | 83 | 35 | 2.0 | 6.0 | 0.00 | 0.00 | 0.00 | 81 | 996.3 |
| 20260901091943 | 83 | 34 | 0.0 | 4.0 | 0.00 | 0.00 | 0.00 | 82 | 996.2 |
| 20260901091915 | 83 | 58 | 1.0 | 4.0 | 0.00 | 0.00 | 0.00 | 82 | 996.3 |
| 20260901091443 | 83 | 69 | 1.0 | 6.0 | 0.00 | 0.00 | 0.00 | 82 | 996.1 |
| 20260901090943 | 82 | 19 | 4.0 | 10.0 | 0.00 | 0.00 | 0.00 | 83 | 996.1 |
| 20260901090855 | 82 | 234 | 5.0 | 10.0 | 0.00 | 0.00 | 0.00 | 83 | 996.1 |
| 20260901090443 | 82 | 259 | 2.0 | 7.0 | 0.00 | 0.00 | 0.00 | 83 | 996.1 |
| 20260901085943 | 82 | 190 | 4.0 | 6.0 | 0.00 | 0.00 | 0.00 | 83 | 996.1 |
| 20260901085834 | 82 | 206 | 4.0 | 5.0 | 0.00 | 0.00 | 0.00 | 83 | 996.1 |
| 20260901085443 | 82 | 182 | 3.0 | 5.0 | 0.00 | 0.00 | 0.00 | 83 | 996.1 |
| 20260901085324 | 82 | 214 | 1.0 | 6.0 | 0.00 | 0.00 | 0.00 | 83 | 996.1 |
| 20260901084944 | 82 | 236 | 1.0 | 6.0 | 0.00 | 0.00 | 0.00 | 82 | 996.1 |
| 20260901084442 | 83 | 196 | 4.0 | 8.0 | 0.00 | 0.00 | 0.00 | 82 | 996.1 |
| 20260901084304 | 83 | 212 | 5.0 | 7.0 | 0.00 | 0.00 | 0.00 | 82 | 996.0 |
| 20260901083943 | 83 | 239 | 4.0 | 7.0 | 0.00 | 0.00 | 0.00 | 82 | 996.0 |
| 20260901083754 | 83 | 217 | 4.0 | 7.0 | 0.00 | 0.00 | 0.00 | 82 | 996.0 |
| 20260901083443 | 83 | 169 | 2.0 | 5.0 | 0.00 | 0.00 | 0.00 | 82 | 996.1 |
| 20260901082943 | 83 | 232 | 3.0 | 7.0 | 0.00 | 0.00 | 0.00 | 81 | 996.1 |
| 20260901082734 | 83 | 264 | 3.0 | 6.0 | 0.00 | 0.00 | 0.00 | 82 | 996.2 |
| 20260901082443 | 83 | 180 | 4.0 | 8.0 | 0.00 | 0.00 | 0.00 | 81 | 996.1 |
| 20260901081942 | 83 | 175 | 5.0 | 7.0 | 0.00 | 0.00 | 0.00 | 80 | 996.1 |
| 20260901081714 | 84 | 146 | 3.0 | 7.0 | 0.00 | 0.00 | 0.00 | 80 | 996.1 |
| 20260901081443 | 84 | 181 | 3.0 | 5.0 | 0.00 | 0.00 | 0.00 | 80 | 996.0 |
| 20260901081204 | 84 | 99 | 2.0 | 7.0 | 0.00 | 0.00 | 0.00 | 81 | 996.1 |
| 20260901080942 | 84 | 178 | 1.0 | 7.0 | 0.00 | 0.00 | 0.00 | 81 | 996.0 |
| 20260901080654 | 84 | 213 | 3.0 | 5.0 | 0.00 | 0.00 | 0.00 | 81 | 995.9 |
| 20260901080443 | 83 | 70 | 3.0 | 5.0 | 0.00 | 0.00 | 0.00 | 81 | 995.9 |
| 20260901080144 | 83 | 345 | 1.0 | 5.0 | 0.00 | 0.00 | 0.00 | 81 | 995.9 |
| 20260901075942 | 83 | 42 | 1.0 | 5.0 | 0.00 | 0.00 | 0.00 | 81 | 995.9 |
| 20260901075634 | 83 | 44 | 2.0 | 4.0 | 0.00 | 0.00 | 0.00 | 82 | 995.9 |
| 20260901075443 | 83 | 48 | 1.0 | 3.0 | 0.00 | 0.00 | 0.00 | 82 | 995.9 |
| 20260901075124 | 83 | 259 | 2.0 | 3.0 | 0.00 | 0.00 | 0.00 | 82 | 996.0 |
| 20260901074943 | 83 | 246 | 2.0 | 3.0 | 0.00 | 0.00 | 0.00 | 82 | 996.0 |
| 20260901074613 | 83 | 332 | 1.0 | 4.0 | 0.00 | 0.00 | 0.00 | 82 | 996.0 |
| 20260901074442 | 83 | 345 | 2.0 | 4.0 | 0.00 | 0.00 | 0.00 | 82 | 996.0 |
| 20260901074104 | 83 | 360 | 1.0 | 7.0 | 0.00 | 0.00 | 0.00 | 82 | 996.0 |
| 20260901073942 | 83 | 325 | 1.0 | 7.0 | 0.00 | 0.00 | 0.00 | 82 | 996.0 |
| 20260901073554 | 83 | 39 | 0.0 | 4.0 | 0.00 | 0.00 | 0.00 | 82 | 996.1 |
| 20260901073043 | 82 | 37 | 1.0 | 6.0 | 0.00 | 0.00 | 0.00 | 82 | 996.1 |
| 20260901072942 | 82 | 59 | 2.0 | 6.0 | 0.00 | 0.00 | 0.00 | 82 | 996.1 |
| 20260901072534 | 83 | 184 | 0.0 | 2.0 | 0.00 | 0.00 | 0.00 | 82 | 996.2 |
| 20260901072444 | 82 | 114 | 0.0 | 2.0 | 0.00 | 0.00 | 0.00 | 82 | 996.2 |
| 20260901072023 | 82 | 54 | 1.0 | 8.0 | 0.00 | 0.00 | 0.00 | 82 | 996.2 |
| 20260901071942 | 82 | 65 | 3.0 | 8.0 | 0.00 | 0.00 | 0.00 | 82 | 996.2 |
| 20260901071513 | 83 | 341 | 1.0 | 8.0 | 0.00 | 0.00 | 0.00 | 82 | 996.3 |
| 20260901071442 | 83 | 323 | 2.0 | 8.0 | 0.00 | 0.00 | 0.00 | 82 | 996.3 |
| 20260901071003 | 83 | 82 | 0.0 | 10.0 | 0.00 | 0.00 | 0.00 | 83 | 996.3 |
| 20260901070943 | 83 | 263 | 1.0 | 10.0 | 0.00 | 0.00 | 0.00 | 83 | 996.3 |
| 20260901070453 | 83 | 346 | 2.0 | 10.0 | 0.00 | 0.00 | 0.00 | 82 | 996.3 |
| 20260901070442 | 82 | 121 | 2.0 | 10.0 | 0.00 | 0.00 | 0.00 | 82 | 996.3 |
| 20260901065945 | 82 | 107 | 4.0 | 14.0 | 0.00 | 0.00 | 0.00 | 83 | 996.3 |
| 20260901065942 | 82 | 132 | 4.0 | 14.0 | 0.00 | 0.00 | 0.00 | 83 | 996.3 |
| 20260901065442 | 83 | 61 | 2.0 | 5.0 | 0.00 | 0.00 | 0.00 | 83 | 996.4 |
| 20260901064942 | 82 | 260 | 2.0 | 8.0 | 0.00 | 0.00 | 0.00 | 84 | 996.5 |
| 20260901064442 | 82 | 67 | 5.0 | 12.0 | 0.00 | 0.00 | 0.00 | 83 | 996.6 |
| 20260901064413 | 82 | 49 | 4.0 | 12.0 | 0.00 | 0.00 | 0.00 | 84 | 996.6 |
| 20260901063943 | 82 | 262 | 3.0 | 9.0 | 0.00 | 0.00 | 0.00 | 84 | 996.6 |
| 20260901063903 | 82 | 93 | 6.0 | 9.0 | 0.00 | 0.00 | 0.00 | 84 | 996.6 |
| 20260901063442 | 82 | 83 | 1.0 | 7.0 | 0.00 | 0.00 | 0.00 | 84 | 996.7 |
| 20260901063354 | 82 | 39 | 1.0 | 7.0 | 0.00 | 0.00 | 0.00 | 84 | 996.7 |
| 20260901062942 | 82 | 238 | 0.0 | 12.0 | 0.00 | 0.00 | 0.00 | 85 | 996.7 |
| 20260901062843 | 82 | 297 | 3.0 | 12.0 | 0.00 | 0.00 | 0.00 | 85 | 996.7 |
| 20260901062442 | 81 | 145 | 4.0 | 9.0 | 0.00 | 0.00 | 0.00 | 85 | 996.8 |
| 20260901062333 | 81 | 309 | 3.0 | 9.0 | 0.00 | 0.00 | 0.00 | 85 | 996.8 |
| 20260901061942 | 81 | 39 | 3.0 | 9.0 | 0.00 | 0.00 | 0.00 | 86 | 996.9 |
| 20260901061823 | 81 | 48 | 1.0 | 7.0 | 0.00 | 0.00 | 0.00 | 86 | 996.9 |
| 20260901061442 | 81 | 38 | 1.0 | 10.0 | 0.00 | 0.00 | 0.00 | 86 | 996.9 |
| 20260901061313 | 81 | 170 | 2.0 | 10.0 | 0.00 | 0.00 | 0.00 | 86 | 996.9 |
| 20260901060941 | 81 | 4 | 2.0 | 9.0 | 0.00 | 0.00 | 0.00 | 87 | 996.9 |
| 20260901060803 | 81 | 303 | 0.0 | 8.0 | 0.00 | 0.00 | 0.00 | 87 | 996.9 |
| 20260901060443 | 81 | 237 | 3.0 | 6.0 | 0.00 | 0.00 | 0.00 | 87 | 996.9 |
| 20260901060253 | 80 | 180 | 4.0 | 6.0 | 0.00 | 0.00 | 0.00 | 87 | 997.0 |
| 20260901055942 | 80 | 180 | 4.0 | 6.0 | 0.00 | 0.00 | 0.00 | 87 | 997.0 |
| 20260901055441 | 80 | 360 | 1.0 | 5.0 | 0.00 | 0.00 | 0.00 | 87 | 997.0 |
| 20260901055233 | 80 | 287 | 2.0 | 7.0 | 0.00 | 0.00 | 0.00 | 87 | 997.0 |
| 20260901054942 | 80 | 163 | 1.0 | 12.0 | 0.00 | 0.00 | 0.00 | 87 | 997.1 |
| 20260901054723 | 80 | 88 | 5.0 | 12.0 | 0.00 | 0.00 | 0.00 | 87 | 997.1 |
| 20260901054441 | 80 | 45 | 5.0 | 11.0 | 0.00 | 0.00 | 0.00 | 87 | 997.1 |
| 20260901054212 | 80 | 238 | 2.0 | 13.0 | 0.00 | 0.00 | 0.00 | 87 | 997.1 |
| 20260901053941 | 80 | 44 | 9.0 | 13.0 | 0.00 | 0.00 | 0.00 | 87 | 997.2 |
| 20260901053703 | 80 | 73 | 3.0 | 8.0 | 0.00 | 0.00 | 0.00 | 87 | 997.3 |
| 20260901053442 | 80 | 41 | 2.0 | 8.0 | 0.00 | 0.00 | 0.00 | 87 | 997.3 |
| 20260901053152 | 80 | 130 | 4.0 | 10.0 | 0.00 | 0.00 | 0.00 | 87 | 997.3 |
| 20260901052941 | 80 | 31 | 3.0 | 10.0 | 0.00 | 0.00 | 0.00 | 87 | 997.4 |
| 20260901052643 | 80 | 57 | 3.0 | 7.0 | 0.00 | 0.00 | 0.00 | 88 | 997.4 |
| 20260901052442 | 80 | 192 | 1.0 | 9.0 | 0.00 | 0.00 | 0.00 | 87 | 997.4 |
| 20260901052132 | 80 | 4 | 5.0 | 18.0 | 0.00 | 0.00 | 0.00 | 87 | 997.5 |
| 20260901051941 | 80 | 128 | 9.0 | 18.0 | 0.00 | 0.00 | 0.00 | 87 | 997.5 |
| 20260901051623 | 80 | 35 | 3.0 | 13.0 | 0.00 | 0.00 | 0.00 | 88 | 997.6 |
| 20260901051442 | 80 | 245 | 5.0 | 13.0 | 0.00 | 0.00 | 0.00 | 88 | 997.6 |
| 20260901051112 | 80 | 43 | 1.0 | 4.0 | 0.00 | 0.00 | 0.00 | 88 | 997.7 |
| 20260901050941 | 80 | 160 | 1.0 | 18.0 | 0.00 | 0.00 | 0.00 | 88 | 997.7 |
| 20260901050603 | 79 | 47 | 8.0 | 18.0 | 0.00 | 0.00 | 0.00 | 88 | 997.7 |
| 20260901050442 | 80 | 321 | 3.0 | 11.0 | 0.00 | 0.00 | 0.00 | 88 | 997.7 |
| 20260901050052 | 79 | 25 | 5.0 | 13.0 | 0.00 | 0.00 | 0.00 | 88 | 997.8 |
| 20260901045941 | 79 | 48 | 3.0 | 13.0 | 0.00 | 0.00 | 0.00 | 88 | 997.8 |
| 20260901045543 | 79 | 25 | 3.0 | 11.0 | 0.00 | 0.00 | 0.00 | 88 | 997.9 |
| 20260901045441 | 79 | 36 | 1.0 | 11.0 | 0.00 | 0.00 | 0.00 | 88 | 997.9 |
| 20260901045032 | 79 | 24 | 4.0 | 13.0 | 0.00 | 0.00 | 0.00 | 88 | 997.9 |
| 20260901044522 | 79 | 48 | 2.0 | 14.0 | 0.00 | 0.00 | 0.00 | 88 | 998.0 |
| 20260901044441 | 79 | 30 | 9.0 | 14.0 | 0.00 | 0.00 | 0.00 | 88 | 998.0 |
| 20260901044013 | 79 | 15 | 6.0 | 12.0 | 0.00 | 0.00 | 0.00 | 89 | 998.1 |
| 20260901043940 | 79 | 67 | 5.0 | 12.0 | 0.00 | 0.00 | 0.00 | 89 | 998.0 |
| 20260901043441 | 79 | 182 | 3.0 | 15.0 | 0.00 | 0.00 | 0.00 | 89 | 998.1 |
| 20260901042952 | 79 | 50 | 1.0 | 14.0 | 0.00 | 0.00 | 0.00 | 89 | 998.2 |
| 20260901042941 | 79 | 76 | 1.0 | 14.0 | 0.00 | 0.00 | 0.00 | 89 | 998.1 |
| 20260901042444 | 79 | 48 | 6.0 | 17.0 | 0.00 | 0.00 | 0.00 | 89 | 998.1 |
| 20260901042441 | 79 | 44 | 6.0 | 17.0 | 0.00 | 0.00 | 0.00 | 89 | 998.1 |
| 20260901041941 | 79 | 314 | 3.0 | 18.0 | 0.00 | 0.00 | 0.00 | 89 | 998.3 |
| 20260901041441 | 79 | 212 | 3.0 | 16.0 | 0.00 | 0.00 | 0.00 | 89 | 998.3 |
| 20260901041422 | 79 | 107 | 4.0 | 16.0 | 0.00 | 0.00 | 0.00 | 89 | 998.3 |
| 20260901040940 | 79 | 43 | 2.0 | 12.0 | 0.00 | 0.00 | 0.00 | 89 | 998.5 |
| 20260901040441 | 79 | 67 | 7.0 | 10.0 | 0.00 | 0.00 | 0.00 | 89 | 998.4 |
| 20260901040402 | 79 | 69 | 6.0 | 13.0 | 0.00 | 0.00 | 0.00 | 89 | 998.4 |
| 20260901035941 | 79 | 142 | 6.0 | 20.0 | 0.00 | 0.00 | 0.00 | 89 | 998.3 |
| 20260901035852 | 79 | 52 | 6.0 | 20.0 | 0.00 | 0.00 | 0.00 | 89 | 998.4 |
| 20260901035440 | 79 | 40 | 4.0 | 20.0 | 0.00 | 0.00 | 0.00 | 89 | 998.3 |
| 20260901035342 | 79 | 107 | 6.0 | 20.0 | 0.00 | 0.00 | 0.00 | 88 | 998.3 |
| 20260901034941 | 79 | 108 | 9.0 | 20.0 | 0.00 | 0.00 | 0.00 | 88 | 998.5 |
| 20260901034440 | 79 | 347 | 5.0 | 21.0 | 0.00 | 0.00 | 0.00 | 88 | 998.3 |
| 20260901034321 | 79 | 53 | 7.0 | 21.0 | 0.00 | 0.00 | 0.00 | 88 | 998.4 |
| 20260901033941 | 79 | 98 | 5.0 | 13.0 | 0.00 | 0.00 | 0.00 | 88 | 998.5 |
| 20260901033812 | 79 | 265 | 2.0 | 13.0 | 0.00 | 0.00 | 0.00 | 88 | 998.4 |
| 20260901033441 | 79 | 171 | 5.0 | 10.0 | 0.00 | 0.00 | 0.00 | 87 | 998.4 |
| 20260901032940 | 79 | 359 | 2.0 | 8.0 | 0.00 | 0.00 | 0.00 | 87 | 998.5 |
| 20260901032752 | 79 | 36 | 3.0 | 8.0 | 0.00 | 0.00 | 0.00 | 86 | 998.5 |
| 20260901032441 | 80 | 259 | 3.0 | 7.0 | 0.00 | 0.00 | 0.00 | 86 | 998.5 |
| 20260901032241 | 80 | 55 | 1.0 | 7.0 | 0.00 | 0.00 | 0.00 | 86 | 998.6 |
| 20260901031940 | 80 | 56 | 5.0 | 10.0 | 0.00 | 0.00 | 0.00 | 85 | 998.6 |
| 20260901031732 | 80 | 6 | 5.0 | 10.0 | 0.00 | 0.00 | 0.00 | 85 | 998.6 |
| 20260901031441 | 80 | 54 | 4.0 | 10.0 | 0.00 | 0.00 | 0.00 | 84 | 998.6 |
| 20260901030940 | 81 | 28 | 2.0 | 8.0 | 0.00 | 0.00 | 0.00 | 84 | 998.5 |
| 20260901030712 | 81 | 357 | 4.0 | 7.0 | 0.00 | 0.00 | 0.00 | 84 | 998.5 |
| 20260901030441 | 81 | 75 | 5.0 | 7.0 | 0.00 | 0.00 | 0.00 | 84 | 998.6 |
| 20260901030201 | 81 | 1 | 1.0 | 6.0 | 0.00 | 0.00 | 0.00 | 84 | 998.6 |
| 20260901025940 | 81 | 53 | 3.0 | 9.0 | 0.00 | 0.00 | 0.00 | 84 | 998.6 |
| 20260901025652 | 81 | 75 | 5.0 | 12.0 | 0.00 | 0.00 | 0.00 | 84 | 998.6 |
| 20260901025440 | 81 | 85 | 5.0 | 12.0 | 0.00 | 0.00 | 0.00 | 84 | 998.6 |
| 20260901025141 | 81 | 134 | 4.0 | 9.0 | 0.00 | 0.00 | 0.00 | 84 | 998.7 |
| 20260901024940 | 81 | 29 | 4.0 | 10.0 | 0.00 | 0.00 | 0.00 | 84 | 998.6 |
| 20260901024631 | 81 | 32 | 4.0 | 13.0 | 0.00 | 0.00 | 0.00 | 84 | 998.7 |
| 20260901024440 | 81 | 50 | 2.0 | 14.0 | 0.00 | 0.00 | 0.00 | 84 | 998.7 |
| 20260901024122 | 81 | 35 | 9.0 | 14.0 | 0.00 | 0.00 | 0.00 | 84 | 998.6 |
| 20260901023941 | 81 | 103 | 6.0 | 13.0 | 0.00 | 0.00 | 0.00 | 84 | 998.7 |
| 20260901023611 | 81 | 54 | 1.0 | 6.0 | 0.00 | 0.00 | 0.00 | 84 | 998.6 |
| 20260901023440 | 81 | 354 | 3.0 | 10.0 | 0.00 | 0.00 | 0.00 | 84 | 998.6 |
| 20260901023101 | 81 | 52 | 4.0 | 24.0 | 0.00 | 0.00 | 0.00 | 84 | 998.6 |
| 20260901022940 | 81 | 51 | 13.0 | 24.0 | 0.00 | 0.00 | 0.00 | 84 | 998.6 |
| 20260901022551 | 81 | 95 | 3.0 | 10.0 | 0.00 | 0.00 | 0.00 | 84 | 998.7 |
| 20260901022440 | 81 | 59 | 8.0 | 10.0 | 0.00 | 0.00 | 0.00 | 84 | 998.7 |
| 20260901022041 | 81 | 52 | 1.0 | 5.0 | 0.00 | 0.00 | 0.00 | 85 | 998.7 |
| 20260901021940 | 81 | 49 | 3.0 | 5.0 | 0.00 | 0.00 | 0.00 | 85 | 998.7 |
| 20260901021532 | 81 | 98 | 3.0 | 15.0 | 0.00 | 0.00 | 0.00 | 85 | 998.7 |
| 20260901021439 | 81 | 53 | 5.0 | 15.0 | 0.00 | 0.00 | 0.00 | 84 | 998.7 |
| 20260901020940 | 81 | 38 | 8.0 | 14.0 | 0.00 | 0.00 | 0.00 | 84 | 998.6 |
| 20260901020511 | 81 | 48 | 4.0 | 10.0 | 0.00 | 0.00 | 0.00 | 84 | 998.6 |
| 20260901020440 | 81 | 44 | 2.0 | 10.0 | 0.00 | 0.00 | 0.00 | 84 | 998.6 |
| 20260901020001 | 82 | 37 | 2.0 | 10.0 | 0.00 | 0.00 | 0.00 | 83 | 998.6 |
| 20260901015940 | 81 | 338 | 1.0 | 10.0 | 0.00 | 0.00 | 0.00 | 83 | 998.6 |
| 20260901015451 | 82 | 113 | 5.0 | 8.0 | 0.00 | 0.00 | 0.00 | 83 | 998.6 |
| 20260901015440 | 82 | 7 | 5.0 | 8.0 | 0.00 | 0.00 | 0.00 | 83 | 998.6 |
| 20260901014942 | 82 | 27 | 3.0 | 11.0 | 0.00 | 0.00 | 0.00 | 84 | 998.5 |
| 20260901014939 | 82 | 34 | 3.0 | 11.0 | 0.00 | 0.00 | 0.00 | 84 | 998.6 |
| 20260901014440 | 81 | 41 | 3.0 | 16.0 | 0.00 | 0.00 | 0.00 | 84 | 998.6 |
| 20260901014431 | 81 | 17 | 3.0 | 16.0 | 0.00 | 0.00 | 0.00 | 84 | 998.6 |
| 20260901013939 | 81 | 30 | 3.0 | 10.0 | 0.00 | 0.00 | 0.00 | 85 | 998.7 |
| 20260901013920 | 81 | 20 | 4.0 | 10.0 | 0.00 | 0.00 | 0.00 | 85 | 998.7 |
| 20260901013439 | 81 | 115 | 2.0 | 5.0 | 0.00 | 0.00 | 0.00 | 85 | 998.7 |
| 20260901013411 | 81 | 77 | 1.0 | 5.0 | 0.00 | 0.00 | 0.00 | 85 | 998.6 |
| 20260901012940 | 81 | 357 | 1.0 | 10.0 | 0.00 | 0.00 | 0.00 | 86 | 998.7 |
| 20260901012901 | 81 | 71 | 1.0 | 10.0 | 0.00 | 0.00 | 0.00 | 86 | 998.7 |
| 20260901012440 | 81 | 236 | 1.0 | 3.0 | 0.00 | 0.00 | 0.00 | 86 | 998.7 |